GALAXY 23 (TELSTAR 13)

Satellite information

Favourite Embed

Satellite Type and Status

PAYLOADIN ORBIT

Key statistics

Satellite GALAXY 23 (TELSTAR 13) at a glance.

Uptime

8164

Days in orbit

Revolutions

≈ 1.0

Per day

Orbit

GEO

Geostationary Orbit

Inclination

2.7

Latest

Satellite identification and parameters

Extended collection of information and parameters for GALAXY 23 (TELSTAR 13).

Object identification

Identified? True

Debris? False

Object name: GALAXY 23 (TELSTAR 13)

International designator: 2003-034A

Object number (NORAD): 27854

Object ID (CCSDS): 27854

Country: UNITED STATES OF AMERICA (US)

Current information (Y/N): Y

RCS size: LARGE

Orbital parameters

Period: 1455.166 minutes

Inclination: 2.7161 deg

SMA: 42537.164 km

Apoapsis: 36194.46 km

Periapsis: 36123.597 km

RAAN: 81.9164 deg

Eccentricy: 0.00083295

Argument of periapsis: 163.3428 deg

Mean anomaly: 82.447 deg

Mean motion: 0.98957786 rev/day

Mean motion (dot): -0.00000243 rev/day2

B* drag term: 0.0 1/REarth

Two-line elements (TLE)

Creation date: Dec. 12, 2025, 10:14 a.m.

Reference frame: TEME

Reference center: EARTH

Epoch: Dec. 12, 2025, 5:41 a.m. UTC

TLE line 0: 0 GALAXY 23 (TELSTAR 13)

TLE line 1: 1 27854U 03034A 25346.23693221 -.00000243 00000-0 00000-0 0 9994

TLE line 2: 2 27854 2.7161 81.9164 0008329 163.3428 82.4470 0.98957786 81848

Live tracking on map

Real-time ground track for satellite GALAXY 23 (TELSTAR 13).

In-orbit conjunctions

There are no conjunctions computed for GALAXY 23 (TELSTAR 13), at the moment. Check back to stay up to date, as we update our databases every day.

Go to all conjunctions

Associated space launch

The EchoStar IX satellite is equipped with one of the first commercial Ka-band spot-beam payloads for use over the United States

GALAXY 23 (TELSTAR 13) was lifted into orbit during the mission ‘Zenit | Echostar IX’, on board a Zenit space rocket.

The launch took place on Aug. 8, 2003, 3:30 a.m. from Launch Platform Odyssey.

For more information about the launch, click the button.

Launch to space Zenit | Echostar IX
Zenit | Echostar IX

Agency: N/A

Status: Launch Successful

Launch date: Aug. 8, 2003, 3:30 a.m. UTC

Rocket: Zenit

Launch pad: Launch Platform Odyssey

Location: Sea Launch

...

Latest news about this satellite

There are no fresh news available about this satellite. Check back as we update our databases every day.


Newsletter sign-up

Weekly statistics, charts and insights to help you stay on top of the space industry.